Oxford, CT

2:59 PM EDT on March 23, 2017 (GMT -0400)
Waterbury-Oxford

Weather History for KOXC - March, 2012

Change the Weather History Date:

Thursday, March 1, 2012

  Actual Average Record
Temperature  
Mean Temperature 30 °F -  
Max Temperature 33 °F 38 °F 59 °F (2004)
Min Temperature 26 °F 23 °F 6 °F (2014)
Degree Days  
Heating Degree Days 36    
Moisture  
Dew Point 27 °F    
Average Humidity 83    
Maximum Humidity 87    
Minimum Humidity 74    
Precipitation  
Precipitation 0.16 in - - ()
Sea Level Pressure  
Sea Level Pressure 29.80 in    
Wind  
Wind Speed 10 mph (NE)    
Max Wind Speed 17 mph    
Max Gust Speed 30 mph    
Visibility 6 miles    
Events Rain , Snow    
Averages and records for this station are not official NWS values.
T = Trace of Precipitation, MM = Missing Value Source: NWS Daily Summary

Daily Weather History Graph

Daily Weather History Graph

Search for Another Location

Airport or City:

Trip Planner

Search our weather history database for the weather conditions in past years. The results will help you decide how hot, cold, wet, or windy it might be!

Date:

Astronomy

Mar. 01, 2012 Rise Set
Actual Time 6:26 AM EST 5:43 PM EST
Civil Twilight 5:58 AM EST 6:11 PM EST
Nautical Twilight 5:26 AM EST 6:43 PM EST
Astronomical Twilight 4:54 AM EST 7:15 PM EST
Moon 10:58 AM EST (3/1) 1:26 AM EST (3/1)
Length of Visible Light 12h 12m
Length of Day
11h 17m
First Quarter, 56% of the Moon is Illuminated
Mar 1
First Quarter
Mar 8
Full
Mar 14
Last Quarter
Mar 22
New
Mar 30
First Quarter

Hourly Weather History & Observations

Time (EST) Temp. Windchill Dew Point Humidity Pressure Visibility Wind Dir Wind Speed Gust Speed Precip Events Conditions
12:15 AM 32.0 °F 24.2 °F 28.4 °F 87% 29.83 in 3.0 mi ENE 9.2 mph 18.4 mph 0.01 in   Overcast
12:35 AM 32.0 °F 24.2 °F 28.4 °F 87% 29.81 in 5.0 mi ENE 9.2 mph 18.4 mph 0.02 in   Overcast
12:55 AM 32.0 °F 24.2 °F 28.4 °F 87% 29.80 in 3.0 mi ENE 9.2 mph 16.1 mph 0.03 in   Overcast
1:35 AM 32.0 °F 24.2 °F 28.4 °F 87% 29.79 in 4.0 mi ENE 9.2 mph 17.3 mph 0.02 in   Overcast
1:55 AM 32.0 °F 23.6 °F 28.4 °F 87% 29.76 in 5.0 mi ENE 10.4 mph 18.4 mph 0.02 in   Overcast
2:35 AM 32.0 °F 22.5 °F 28.4 °F 87% 29.73 in 9.0 mi ENE 12.7 mph 23.0 mph 0.02 in   Overcast
3:15 AM 33.8 °F 24.8 °F 28.4 °F 81% 29.71 in 10.0 mi ENE 12.7 mph 29.9 mph 0.01 in   Overcast
3:35 AM 33.8 °F 24.3 °F 28.4 °F 81% 29.69 in 10.0 mi ENE 13.8 mph 23.0 mph 0.02 in   Overcast
3:55 AM 33.8 °F 23.2 °F 28.4 °F 81% 29.68 in 10.0 mi ENE 17.3 mph 21.9 mph 0.03 in   Overcast
4:15 AM 33.8 °F 25.8 °F 28.4 °F 81% 29.70 in 3.0 mi East 10.4 mph 18.4 mph 0.04 in   Overcast
4:35 AM 33.8 °F 27.7 °F 28.4 °F 81% 29.73 in 5.0 mi ENE 6.9 mph - 0.06 in   Overcast
5:15 AM 33.8 °F 26.4 °F 30.2 °F 87% 29.73 in 7.0 mi NE 9.2 mph - N/A   Overcast
5:35 AM 33.8 °F 27.7 °F 30.2 °F 87% 29.71 in 4.0 mi NE 6.9 mph - N/A   Overcast
5:45 AM 33.8 °F 26.4 °F 30.2 °F 87% 29.71 in 4.0 mi ENE 9.2 mph - N/A Rain Light Rain
5:55 AM 33.8 °F 25.3 °F 30.2 °F 87% 29.70 in 5.0 mi ENE 11.5 mph - N/A   Overcast
6:45 AM 33.8 °F 25.3 °F 30.2 °F 87% 29.69 in 6.0 mi East 11.5 mph 20.7 mph N/A   Overcast
7:45 AM 33.8 °F 23.5 °F 30.2 °F 87% 29.68 in 6.0 mi ENE 16.1 mph 23.0 mph N/A   Overcast
8:45 AM 33.8 °F 26.4 °F 30.2 °F 87% 29.70 in 1.5 mi East 9.2 mph - N/A   Light Drizzle
10:45 AM 33.8 °F 25.3 °F 30.2 °F 87% 29.69 in 3.0 mi ENE 11.5 mph 20.7 mph N/A   Light Drizzle
12:45 PM 33.8 °F 25.3 °F 30.2 °F 87% 29.71 in 7.0 mi NE 11.5 mph - N/A   Overcast
1:45 PM 33.8 °F 26.4 °F 30.2 °F 87% 29.73 in 7.0 mi NE 9.2 mph - N/A   Overcast
2:45 PM 33.8 °F 28.6 °F 28.4 °F 81% 29.75 in 2.0 mi NNE 5.8 mph - N/A   Light Drizzle
3:45 PM 33.8 °F 26.4 °F 28.4 °F 81% 29.78 in 2.0 mi NNE 9.2 mph - N/A Snow Light Snow
4:45 PM 33.8 °F 27.0 °F 28.4 °F 81% 29.81 in 1.0 mi ENE 8.1 mph - N/A Snow Light Snow
5:45 PM 30.2 °F 22.6 °F 26.6 °F 86% 29.85 in 3.0 mi NE 8.1 mph - N/A Snow Light Snow
6:45 PM 30.2 °F 21.9 °F 26.6 °F 86% 29.88 in 10.0 mi ENE 9.2 mph - N/A   Overcast
7:46 PM 28.4 °F 18.5 °F 23.0 °F 80% 29.89 in 10.0 mi NE 11.5 mph 20.7 mph N/A   Overcast
9:15 PM 28.4 °F 19.7 °F 21.2 °F 74% 29.94 in 10.0 mi NE 9.2 mph 19.6 mph N/A   Overcast
9:35 PM - - - N/A% 29.94 in 10.0 mi NE 6.9 mph 16.1 mph N/A   Overcast
9:55 PM 28.4 °F 19.1 °F 21.2 °F 74% 29.95 in 10.0 mi NE 10.4 mph 16.1 mph N/A   Overcast
10:15 PM 28.4 °F 18.0 °F 21.2 °F 74% 29.96 in 10.0 mi NNE 12.7 mph 19.6 mph N/A   Overcast
10:35 PM 28.4 °F 20.4 °F 21.2 °F 74% 29.97 in 10.0 mi NE 8.1 mph - N/A   Overcast
10:55 PM 26.6 °F 19.1 °F 21.2 °F 80% 29.97 in 10.0 mi NNE 6.9 mph - N/A   Overcast
11:35 PM 26.6 °F 19.1 °F 21.2 °F 80% 29.98 in 10.0 mi NE 6.9 mph - N/A   Overcast
11:55 PM 26.6 °F 18.2 °F 21.2 °F 80% 29.99 in 10.0 mi NE 8.1 mph - N/A   Overcast